Wind_Speed
46 45 45 43 42 40 39 37 36 35 34 33 32 32 31 31 30 30 30 29 29 28 27 27 26 26 25 25 25 24 24 24 24 24 23 23 23 22 22 22 22 22 22 23 23 23 24 24 24 24 24 24 24 24 24 23 23 23 23 23 23 24 24 24 24 24 24 24 24 24 24 24 23 22 22 21 21 21 20 20 21 21 21 20 20 19
46 45 44 43 41 40 38 37 35 34 33 33 32 31 31 31 30 30 30 29 28 28 27 27 26 26 25 25 25 25 24 24 24 24 23 23 23 23 22 22 22 22 23 23 23 23 24 24 24 25 25 25 24 24 24 24 24 24 24 24 24 24 24 24 24 24 24 24 24 24 24 24 23 23 22 22 21 21 21 20 20 20 20 20 20 20
45 45 43 42 40 38 37 36 35 34 33 32 32 31 31 31 30 30 29 28 28 27 27 26 26 25 25 25 25 25 25 25 24 24 24 24 23 23 23 23 23 23 23 23 23 24 24 24 25 25 25 25 25 25 24 24 24 24 24 24 24 24 24 24 25 25 25 24 24 24 24 24 24 24 23 22 22 21 21 21 21 20 20 20 20 20
44 43 42 40 39 37 36 35 34 33 33 32 32 31 31 30 30 29 28 28 27 27 27 26 26 25 25 25 25 25 25 25 25 24 24 24 24 24 24 24 24 23 23 23 24 24 24 25 25 25 25 25 25 25 25 25 25 24 24 25 25 25 25 25 25 25 25 25 25 25 24 24 24 24 24 23 23 22 22 21 21 21 20 20 20 20
43 42 41 39 38 37 36 34 33 33 33 32 32 31 31 30 29 28 28 27 27 27 26 26 26 25 25 25 25 25 25 25 25 25 25 25 25 25 25 24 24 24 24 24 24 25 25 25 25 26 26 26 26 26 25 25 25 25 25 25 25 25 25 25 25 25 25 25 25 25 25 25 25 25 24 24 23 23 22 22 21 21 21 20 20 20
42 41 39 38 37 36 35 34 33 33 33 33 32 31 30 29 28 28 27 27 27 27 26 26 26 26 26 25 25 25 25 25 25 25 25 25 25 25 25 25 25 25 25 25 25 25 26 26 26 26 26 26 26 26 26 26 26 26 26 26 26 26 26 25 25 25 25 25 25 25 25 25 25 25 25 24 24 24 23 23 22 22 21 21 20 20
41 40 39 37 36 35 34 34 33 33 33 32 31 30 29 28 28 27 27 27 27 27 27 27 26 26 26 26 26 26 25 25 25 25 26 26 26 26 26 26 26 26 26 26 26 26 26 26 27 27 27 27 27 27 27 27 26 26 26 26 26 26 26 26 26 26 26 26 25 25 25 25 25 25 25 25 25 24 24 23 23 22 22 21 21 21
40 39 37 36 35 34 34 34 34 34 33 32 30 29 28 27 27 27 27 27 27 27 27 27 27 27 27 26 26 26 26 26 26 26 26 26 26 26 26 26 26 26 26 26 26 27 27 27 27 27 27 27 27 27 27 27 27 27 27 27 27 27 26 26 26 26 26 26 26 26 26 25 25 25 25 25 25 25 24 24 24 23 23 22 22 21
38 37 36 35 34 34 34 35 35 34 33 31 29 28 27 27 27 27 27 27 27 27 27 27 27 27 27 27 26 26 26 26 26 26 26 26 26 26 26 26 26 26 26 27 27 27 27 27 28 28 28 28 28 28 28 28 28 28 28 28 27 27 27 27 27 27 27 26 26 26 26 26 26 26 26 26 26 25 25 25 24 24 23 23 23 22
37 36 36 35 35 35 36 35 35 33 31 29 27 27 26 27 27 27 27 27 27 28 28 28 27 27 27 27 27 26 26 26 26 26 26 27 27 27 27 27 27 27 27 27 27 27 28 28 28 28 28 28 28 28 28 28 28 28 28 28 28 28 28 28 27 27 27 27 27 27 26 26 26 26 26 26 26 26 26 25 25 25 24 24 23 23
37 37 37 37 37 36 36 35 33 30 28 27 26 26 26 27 27 27 27 27 27 28 28 28 28 28 27 27 27 27 27 27 27 27 27 27 27 27 27 27 27 27 27 27 27 28 28 28 28 28 29 29 29 29 29 29 29 29 29 29 29 29 28 28 28 28 28 27 27 27 27 27 27 27 27 27 27 27 26 26 26 26 25 25 24 24
37 37 37 37 37 36 34 32 30 28 26 26 26 26 26 27 27 27 27 27 27 28 28 28 28 28 28 27 27 27 27 27 27 27 27 27 27 27 27 27 27 27 27 27 28 28 28 28 29 29 29 29 29 29 30 30 30 30 30 29 29 29 29 29 29 28 28 28 28 28 28 28 28 28 27 27 27 27 27 27 27 26 26 26 25 25
37 37 36 35 34 33 31 29 27 26 25 25 26 26 27 27 27 28 28 28 28 28 28 28 28 28 28 28 27 27 27 27 27 27 27 27 27 27 27 27 27 27 27 28 28 28 28 29 29 29 29 30 30 30 30 30 30 30 30 30 30 30 30 30 29 29 29 29 29 29 29 29 28 28 28 28 28 28 28 28 28 27 27 27 26 26
35 34 34 33 31 30 28 26 25 25 25 26 26 27 27 27 28 28 28 28 28 28 28 28 28 28 28 28 28 28 28 27 27 27 27 27 27 27 27 27 27 27 27 28 28 28 29 29 29 29 30 30 30 31 31 31 31 31 31 31 31 31 30 30 30 30 30 30 30 30 30 29 29 29 29 29 29 29 29 29 28 28 28 27 27 27
33 32 31 30 29 27 26 25 25 25 25 26 26 27 27 28 28 28 29 29 29 29 28 28 28 28 28 28 28 28 28 27 27 27 27 27 27 27 28 28 27 27 28 28 28 29 29 29 30 30 30 30 31 31 31 31 32 32 32 32 32 31 31 31 31 31 31 31 31 31 31 30 30 30 30 30 30 30 29 29 29 29 28 28 28 27
31 30 29 28 27 26 25 25 25 25 25 26 26 27 28 28 28 29 29 29 29 29 29 29 28 28 28 28 28 28 28 27 27 27 27 27 28 28 28 28 28 28 28 28 29 29 29 30 30 30 31 31 31 32 32 32 32 32 32 32 32 32 32 32 32 32 32 32 32 32 32 32 31 31 31 31 31 30 30 30 30 29 29 29 28 28
30 29 28 26 25 25 24 24 25 25 26 26 27 27 28 28 29 29 29 29 29 29 29 29 29 28 28 28 28 28 28 28 28 27 28 28 28 28 28 28 28 28 29 29 29 30 30 30 31 31 31 32 32 32 33 33 33 33 33 33 33 33 33 33 33 33 33 33 33 33 33 32 32 32 32 32 31 31 31 30 30 30 29 29 29 28
29 27 26 25 24 24 24 24 24 25 26 26 27 28 28 29 29 29 29 29 29 29 29 29 29 29 28 28 28 27 28 28 28 28 28 28 28 29 29 29 29 29 29 29 30 30 30 31 31 31 32 32 33 33 33 33 33 34 34 34 34 34 34 34 34 34 34 34 34 34 33 33 33 33 33 32 32 32 31 31 31 30 30 29 29 29
27 25 24 24 23 23 23 24 24 25 26 27 28 28 28 29 29 29 29 29 29 29 29 29 29 28 28 28 28 28 28 28 28 28 28 29 29 29 29 29 30 30 30 30 30 31 31 31 32 32 32 33 33 33 34 34 34 34 34 35 35 35 35 35 35 35 35 35 35 34 34 34 34 34 33 33 33 32 32 31 31 31 30 30 30 29
24 23 23 22 23 23 23 24 25 26 26 27 28 28 29 29 29 29 29 29 29 29 29 29 28 28 28 28 28 28 28 29 29 29 29 29 29 30 30 30 30 30 31 31 31 31 32 32 32 33 33 33 34 34 34 34 35 35 35 35 35 35 35 36 35 35 35 35 35 35 35 35 34 34 34 34 33 33 32 32 32 31 31 31 30 30
22 22 22 22 22 23 24 24 25 26 27 28 28 29 29 29 29 29 29 29 29 29 29 28 28 28 28 28 28 28 29 29 29 29 29 29 30 30 30 31 31 31 31 31 32 32 32 33 33 33 34 34 34 35 35 35 35 35 36 36 36 36 36 36 36 36 36 36 36 36 36 35 35 35 35 34 34 34 33 33 32 32 31 31 31 31
21 21 22 22 23 24 24 25 26 27 28 28 28 29 29 29 29 29 29 29 29 29 28 28 28 28 28 28 28 29 29 30 30 30 30 30 30 30 31 31 31 32 32 32 32 33 33 33 34 34 34 35 35 35 35 35 36 36 36 36 36 36 36 36 36 36 36 36 36 36 36 36 36 36 35 35 35 34 34 33 33 33 32 32 32 31
21 22 22 23 24 25 25 26 27 28 28 29 29 29 29 29 29 29 29 29 29 28 28 28 28 28 28 28 29 29 30 30 30 31 31 31 31 31 31 32 32 32 32 32 33 33 34 34 34 34 35 35 35 35 36 36 36 36 36 36 36 36 36 37 37 37 37 37 37 37 37 37 36 36 36 36 35 35 35 34 34 33 33 33 32 32
22 22 23 24 25 26 26 27 28 28 29 29 29 29 29 29 29 29 29 28 28 28 28 28 28 28 28 29 29 30 30 30 31 31 31 31 31 32 32 32 33 33 33 33 33 34 34 35 35 35 35 35 36 36 36 36 36 36 36 36 36 36 37 37 37 37 37 37 37 37 37 37 37 37 37 36 36 36 35 35 34 34 34 33 33 33
23 23 24 25 26 26 27 28 28 28 29 29 29 29 29 29 29 29 28 28 28 28 28 28 28 28 28 29 29 30 31 31 31 32 32 32 32 32 33 33 33 34 34 34 34 35 35 35 35 35 36 36 36 36 36 36 36 36 36 36 36 37 37 37 37 37 37 38 38 38 38 38 38 38 37 37 36 36 36 35 35 34 34 34 34 34
24 24 25 26 26 27 27 28 28 28 28 29 29 29 29 29 28 28 28 28 28 28 28 28 28 28 29 29 30 31 31 32 32 32 33 33 33 33 33 34 34 34 34 34 35 35 35 36 36 36 36 36 36 36 36 36 36 36 36 37 37 37 37 37 37 37 38 38 38 38 38 38 38 38 38 37 37 37 36 36 35 35 35 34 34 34
24 25 26 26 27 27 27 28 28 28 28 28 28 28 28 28 28 28 28 28 28 28 29 29 29 29 30 30 30 31 32 32 33 33 33 34 34 34 34 34 35 35 35 35 35 35 36 36 36 36 36 36 36 36 36 37 37 37 37 37 37 37 37 37 37 38 38 38 38 38 38 38 38 38 38 38 37 37 36 36 36 35 35 35 35 35
25 26 26 27 27 27 27 28 28 28 28 28 28 28 28 28 28 28 28 28 29 29 29 29 30 30 30 31 31 32 32 33 33 34 34 35 35 35 35 35 35 35 35 36 36 36 36 36 36 36 36 36 36 37 37 37 37 37 37 37 37 37 37 37 38 38 38 38 38 38 38 38 38 38 38 38 37 37 37 36 36 36 36 36 36 36
25 26 26 27 27 27 27 28 28 28 28 28 28 28 28 28 28 28 28 29 29 29 30 30 30 31 31 32 32 32 33 34 34 35 35 35 36 36 36 36 36 36 36 36 36 36 36 37 37 37 37 37 37 37 37 37 37 37 37 37 37 37 37 38 38 38 38 38 38 38 37 37 37 37 37 37 37 37 37 37 37 36 36 36 36 36
26 26 27 27 27 27 28 28 28 28 28 28 28 28 28 28 28 29 29 29 29 30 30 31 31 32 32 32 33 33 33 34 35 36 36 36 36 36 36 36 37 37 37 37 37 37 37 37 37 37 37 37 37 37 37 37 37 38 38 38 38 38 37 38 37 37 37 37 37 37 37 37 37 37 37 37 37 37 37 37 37 37 37 37 37 37
26 26 27 27 27 27 28 28 28 28 28 28 28 28 28 28 29 29 29 30 30 30 31 31 32 33 33 33 34 34 34 35 35 36 37 37 37 37 37 37 37 37 37 37 37 37 37 37 37 37 37 37 37 37 37 38 38 38 38 38 38 37 37 37 37 37 37 37 37 37 37 37 36 36 36 37 37 37 37 37 37 38 38 38 38 38
26 27 27 27 27 27 28 28 28 28 28 28 28 28 29 29 29 30 30 30 31 31 32 32 33 33 34 34 35 35 35 35 36 37 37 37 37 37 37 37 37 37 37 37 37 37 37 37 37 37 37 37 38 38 38 38 38 38 38 38 38 37 37 37 37 37 37 37 37 37 37 37 37 37 36 37 37 37 37 37 38 38 38 38 38 39
27 27 27 27 27 27 27 27 28 28 28 28 28 29 29 30 30 30 31 31 32 32 33 33 34 34 35 35 35 36 36 36 37 37 37 37 37 37 37 37 37 38 38 38 38 38 38 38 38 38 38 38 38 38 38 38 38 38 38 38 38 38 37 37 37 37 37 37 37 37 37 37 37 37 37 37 37 37 37 38 38 38 38 39 39 39
26 27 27 27 27 27 27 27 27 28 28 28 29 29 30 30 31 31 32 32 33 33 34 34 35 35 35 36 36 36 36 37 37 38 38 38 38 38 38 38 38 38 38 38 38 38 38 38 39 39 39 38 38 38 38 38 38 38 38 38 38 38 38 37 37 38 38 37 37 37 37 37 37 37 37 37 37 37 38 38 38 38 39 39 40 40
26 26 26 27 27 27 27 27 28 28 29 29 30 30 31 31 32 33 33 33 34 34 35 35 36 36 36 36 36 36 37 37 37 38 38 38 38 38 38 38 38 38 38 38 38 38 39 39 39 39 39 39 39 39 39 39 39 39 39 39 38 38 38 38 38 38 38 38 38 38 37 37 37 37 37 37 37 37 38 38 38 39 39 40 40 41
26 26 26 26 27 27 27 28 28 29 29 30 31 31 32 32 33 33 34 34 35 35 35 36 36 36 37 37 37 37 37 37 37 37 38 38 38 38 38 38 38 38 38 39 39 39 39 39 40 40 40 40 40 39 39 39 39 39 39 39 39 39 38 38 38 38 38 38 38 38 38 37 37 37 37 37 38 38 38 39 39 40 40 41 41 41
26 26 26 27 27 28 28 28 29 30 30 31 32 32 33 33 34 34 34 35 35 35 36 36 37 37 37 38 38 38 37 37 37 38 38 38 38 39 39 39 39 39 39 39 39 39 40 40 40 40 40 40 40 40 40 40 40 40 40 39 39 39 39 39 39 39 39 38 38 38 38 38 38 38 38 38 38 39 39 40 40 40 41 41 41 42
26 26 27 27 28 28 29 30 30 31 32 32 33 33 34 34 34 35 35 35 35 36 36 37 37 38 38 38 38 38 38 38 38 38 39 39 39 39 40 40 40 40 40 40 40 40 40 40 40 41 41 41 41 41 41 41 41 40 40 40 40 40 40 40 40 40 40 39 39 39 39 39 39 39 39 39 40 40 40 41 41 41 41 42 42 42
26 27 27 28 29 29 30 31 32 32 33 34 34 35 35 35 35 35 36 36 36 37 37 37 38 38 39 39 39 39 39 39 39 39 39 40 40 40 41 41 41 41 41 41 41 41 41 41 41 41 41 41 41 41 41 41 41 41 41 40 40 40 40 40 41 41 40 40 40 40 40 40 40 40 40 41 41 41 41 42 42 42 42 42 42 41
27 27 28 29 30 30 31 32 33 34 34 35 35 36 36 36 36 36 37 37 37 38 38 38 39 39 39 39 39 39 39 40 40 40 40 41 41 41 41 42 42 42 42 42 42 42 41 41 41 41 41 41 42 42 42 42 42 42 41 41 41 40 40 41 41 41 41 41 41 41 41 41 41 41 42 42 42 42 42 42 42 42 42 42 41 41
27 28 29 30 31 31 32 33 34 35 35 36 36 36 36 37 37 37 38 38 38 39 39 40 40 40 40 40 40 40 40 41 41 41 41 41 42 42 42 42 43 43 43 43 43 42 42 42 42 42 42 41 42 42 42 42 42 42 41 41 41 41 41 41 41 42 42 42 41 41 42 42 42 42 43 43 43 43 43 43 43 43 42 42 41 41
28 29 30 31 32 33 34 34 35 36 36 37 37 37 37 37 38 38 39 39 40 40 40 41 41 41 41 41 41 41 42 42 42 42 42 42 43 43 43 43 43 43 43 43 43 43 43 43 42 42 41 41 41 41 41 41 41 41 41 41 41 41 41 41 41 41 42 42 42 42 42 42 43 43 43 44 44 44 43 43 43 42 42 42 41 41
30 31 31 32 33 34 35 36 36 37 37 37 37 37 38 38 39 40 40 40 41 41 42 42 42 43 43 43 43 43 43 43 43 44 44 44 44 44 44 44 44 44 44 44 44 44 43 43 42 42 41 41 41 40 41 41 41 40 40 40 40 40 40 41 41 41 41 42 42 42 43 43 44 44 44 44 44 44 43 43 42 42 41 41 41 41
31 32 33 34 34 35 36 36 37 37 37 37 38 38 39 39 40 41 41 42 42 42 43 43 43 44 44 44 44 44 44 44 45 45 45 45 45 45 45 45 45 44 44 44 44 44 44 43 43 42 41 41 40 40 40 40 40 40 40 40 40 40 41 41 41 41 42 42 42 43 43 44 44 44 44 44 43 43 42 42 41 41 41 41 41 42
32 33 34 35 36 36 37 37 37 37 38 38 38 39 40 40 41 42 42 43 43 43 44 44 44 45 45 45 45 45 46 46 46 46 46 46 46 46 45 45 45 45 45 44 44 44 43 43 43 42 41 41 40 40 40 40 40 41 40 40 41 41 42 42 42 42 42 43 43 43 44 44 44 43 43 43 42 42 41 41 40 40 41 41 41 42
34 35 35 36 37 37 37 37 38 38 39 39 40 40 41 42 42 43 43 44 44 45 45 45 46 46 46 46 47 47 47 47 47 47 47 46 46 46 46 46 45 45 44 44 44 43 43 43 42 42 41 41 41 41 41 41 42 42 42 42 42 43 43 43 43 42 43 43 43 43 43 43 43 42 41 41 40 40 40 40 40 40 40 41 42 43
35 36 36 37 37 37 38 38 39 39 40 41 41 42 42 43 44 44 45 45 46 46 46 46 47 47 47 47 47 48 48 48 48 47 47 47 47 46 46 46 45 45 44 43 43 43 42 42 42 42 41 41 41 42 42 42 43 43 44 44 44 44 43 43 42 42 42 42 42 42 42 41 41 40 40 40 39 39 39 39 40 40 41 42 42 43
36 36 37 37 38 38 39 39 40 41 42 42 43 43 44 44 45 45 46 46 47 47 47 47 47 48 48 48 48 48 48 48 48 48 47 47 47 46 46 45 45 44 44 43 42 42 42 42 41 41 41 42 42 43 43 43 43 44 44 44 44 44 43 42 41 41 41 41 40 40 40 40 39 39 38 39 39 39 39 40 40 41 41 42 43 44
37 37 38 38 39 40 41 41 42 43 43 44 44 45 45 45 46 46 47 47 47 47 48 48 48 48 48 48 48 48 48 48 48 48 47 47 46 46 45 45 44 43 43 42 42 41 41 41 41 41 41 42 42 43 44 44 44 44 45 44 44 43 42 41 40 40 39 39 39 39 39 38 38 38 38 38 39 39 40 41 41 42 42 43 44 45
38 38 39 40 41 41 42 43 43 44 44 45 45 45 46 46 46 47 47 47 48 48 48 48 48 48 48 48 48 48 47 47 47 47 46 46 46 45 44 44 43 42 42 42 41 41 41 41 42 42 42 42 43 43 44 44 45 45 44 44 43 42 41 40 39 39 38 38 38 38 38 38 38 38 38 39 40 40 41 42 43 43 43 44 44 45
39 40 41 41 42 43 43 44 44 45 45 45 46 46 46 47 47 47 47 47 48 48 48 48 48 48 48 48 47 47 47 46 45 45 45 45 44 44 43 43 42 42 41 41 41 41 41 42 43 43 43 43 43 44 45 45 45 44 44 43 42 41 40 39 38 38 37 37 37 37 37 38 38 38 39 40 41 42 42 43 44 44 44 45 45 45
Wind_Direction
286 285 284 283 281 280 279 278 277 276 276 274 274 273 274 275 275 277 277 278 278 278 277 277 278 279 280 281 282 283 283 283 284 284 285 285 286 287 288 289 289 290 290 291 291 291 290 289 289 288 288 288 288 289 289 290 291 292 293 294 295 295 296 296 297 297 297 298 298 298 299 299 300 300 300 301 301 301 302 303 305 307 309 311 314 317
284 283 283 281 280 279 278 277 276 275 274 273 273 273 273 274 275 276 277 277 277 276 276 277 277 279 280 281 282 282 282 283 283 283 284 285 285 286 287 287 288 288 289 289 289 289 289 289 288 288 288 288 288 288 289 290 291 291 292 293 293 294 295 295 296 296 297 297 297 298 298 298 299 299 299 299 299 300 300 301 303 304 306 308 310 313
283 282 281 280 278 277 276 275 274 273 272 272 272 272 273 274 275 275 276 276 275 275 275 276 277 278 279 280 281 281 282 282 282 283 283 284 284 285 285 286 286 287 288 288 288 288 288 288 288 288 288 288 288 288 289 289 290 291 291 292 292 293 293 294 295 295 296 296 296 297 297 297 298 298 298 298 298 298 299 299 300 301 303 304 306 308
282 281 280 278 277 275 274 273 272 271 270 270 271 272 272 273 274 274 274 274 274 274 274 276 277 278 279 280 281 281 281 282 282 282 283 283 283 284 284 285 286 286 287 287 287 287 287 287 287 287 287 287 288 288 289 289 290 290 290 291 291 292 292 293 294 294 295 295 296 296 296 296 297 297 297 297 297 297 297 298 298 299 300 301 303 304
280 279 278 277 275 274 273 271 270 269 269 270 270 271 272 273 273 273 273 273 273 273 274 275 276 278 279 279 280 280 281 281 281 282 282 282 283 283 283 284 285 285 286 286 287 287 287 287 287 287 287 287 288 288 288 289 289 289 290 290 290 291 291 292 293 293 294 295 295 295 295 296 296 296 296 296 296 296 296 296 296 297 297 298 299 300
278 277 276 275 273 272 270 269 268 268 269 270 270 271 271 272 272 272 272 272 272 273 274 275 276 277 278 279 279 280 280 281 281 281 282 282 282 282 283 283 284 285 285 286 286 286 286 286 286 287 287 287 287 288 288 288 289 289 289 289 289 290 290 291 292 293 293 294 294 295 295 295 295 295 296 296 295 295 295 295 295 295 295 296 296 297
277 275 274 272 271 269 268 268 268 268 269 270 270 270 271 271 271 271 271 271 271 272 274 275 276 277 278 279 279 280 280 280 281 281 281 281 281 282 282 283 283 284 284 285 285 286 286 286 286 286 287 287 287 288 288 288 288 289 289 289 289 289 290 290 291 292 292 293 293 294 294 294 295 295 295 295 295 295 294 294 294 293 293 294 294 295
275 273 271 270 268 268 267 268 268 269 269 269 269 270 270 270 270 270 270 270 271 272 274 275 276 277 278 279 279 280 280 281 281 281 281 281 281 281 282 282 283 283 284 284 285 285 286 286 286 286 287 287 287 288 288 288 288 288 288 288 288 288 289 289 290 291 291 292 292 293 293 294 294 294 294 294 294 294 294 293 293 293 292 292 292 292
273 271 269 268 268 268 268 269 269 269 269 269 269 269 269 269 269 269 270 270 271 273 274 275 276 277 278 279 280 280 281 281 281 281 281 281 281 282 282 282 283 283 284 284 285 285 285 286 286 286 287 287 287 288 288 288 288 288 288 288 287 288 288 288 289 289 290 291 292 292 293 293 293 294 294 294 294 294 293 293 292 292 291 291 291 291
272 271 270 269 269 269 270 270 269 268 268 268 268 268 268 268 269 269 269 270 271 273 274 275 276 277 278 279 280 281 281 282 282 282 282 282 282 282 282 282 283 283 284 284 284 285 285 286 286 286 287 287 287 287 287 287 287 287 287 287 287 287 287 287 287 288 289 290 290 291 292 292 293 293 293 294 293 293 293 292 292 291 291 290 290 290
274 272 271 270 270 270 269 269 268 267 266 266 267 267 267 268 268 268 269 270 271 273 274 275 276 277 278 279 280 281 282 282 282 282 282 282 282 282 283 283 283 283 284 284 284 285 285 285 286 286 286 287 287 287 287 287 287 286 286 286 286 286 286 286 287 287 288 289 289 290 291 292 292 293 293 293 293 292 292 291 291 290 290 289 289 289
274 273 272 270 270 269 268 266 265 265 265 265 265 266 267 267 268 268 269 270 271 272 273 275 276 277 279 280 280 281 281 282 282 282 282 282 282 282 283 283 283 284 284 284 285 285 285 286 286 286 286 286 286 286 286 286 286 286 286 285 285 285 285 285 286 286 287 288 288 289 290 291 291 292 292 292 292 291 291 290 289 289 288 288 288 288
273 272 270 269 267 266 265 264 263 263 263 264 265 266 266 267 268 269 269 270 271 272 273 275 276 278 279 280 281 281 281 281 281 282 282 282 282 282 283 283 283 284 284 284 285 285 286 286 286 286 286 286 286 286 286 286 285 285 285 285 285 285 285 285 285 286 286 287 288 288 289 289 290 290 291 291 290 290 289 289 288 288 287 287 287 286
271 269 267 266 264 263 262 261 261 262 262 263 264 265 266 267 268 269 270 270 271 272 274 275 276 278 279 280 280 281 281 281 281 281 282 282 282 283 283 283 284 284 284 285 285 285 286 286 286 286 286 286 286 286 285 285 285 285 285 285 285 285 285 285 285 285 286 286 287 287 288 288 289 289 289 289 289 289 288 288 287 286 286 285 285 285
268 266 265 264 263 262 261 260 261 261 262 263 264 265 266 267 268 269 270 271 272 273 275 276 277 278 279 280 280 280 281 281 281 282 282 282 283 283 284 284 284 285 285 285 285 286 286 286 286 286 286 286 286 286 286 285 285 285 285 285 285 285 285 285 285 285 285 286 286 286 287 287 287 288 288 288 288 288 287 286 286 285 284 284 284 284
266 265 264 263 261 260 260 260 261 262 263 264 265 266 267 268 269 270 271 272 273 275 276 277 278 278 279 280 280 281 281 281 282 282 283 283 284 284 285 285 286 286 286 286 286 286 287 287 287 287 287 287 286 286 286 286 286 285 285 285 285 285 285 285 285 285 285 285 285 285 285 286 286 286 287 287 287 287 286 285 284 284 283 282 282 282
264 263 262 261 260 260 260 260 261 263 264 265 266 267 268 268 270 271 272 273 275 276 277 278 279 279 280 280 280 281 282 282 283 283 284 284 285 285 285 286 286 287 287 287 287 287 287 287 287 287 287 287 287 287 286 286 286 286 285 285 285 285 285 285 284 284 284 284 284 284 285 285 285 285 285 286 286 286 285 284 283 282 282 281 281 281
263 262 261 260 260 260 260 261 262 263 265 266 266 267 268 269 270 271 273 274 275 276 278 278 279 280 281 281 281 282 283 283 284 284 285 285 286 286 286 287 287 287 287 287 288 288 288 288 288 288 288 287 287 287 286 286 286 285 285 285 285 284 284 284 284 284 284 284 284 284 283 283 284 284 284 285 285 285 284 283 282 281 280 280 279 279
261 260 260 260 260 260 261 262 263 264 265 266 267 267 268 269 271 272 273 274 276 277 278 279 280 280 281 282 282 283 283 284 284 285 285 286 286 286 287 287 287 287 287 288 288 288 288 288 288 288 288 287 287 286 286 286 285 285 285 284 284 284 284 284 284 283 283 283 283 283 283 283 283 283 283 283 284 283 283 282 281 280 279 278 278 278
259 259 260 260 261 262 263 263 264 265 266 266 267 268 269 270 271 272 273 274 276 277 278 279 280 281 282 283 283 283 284 284 285 285 286 286 286 287 287 287 287 287 287 288 288 288 288 288 288 288 287 287 287 286 286 286 285 285 284 284 284 284 283 283 283 283 283 282 282 282 282 282 282 282 282 282 283 282 282 281 280 279 278 277 277 277
260 260 261 261 262 263 264 265 266 266 267 268 268 269 270 271 272 273 274 275 276 277 277 278 280 281 282 283 283 284 284 285 285 285 286 286 286 286 287 287 287 287 287 288 288 288 288 288 288 288 287 287 286 286 286 285 285 285 284 284 283 283 283 283 282 282 282 282 281 281 281 281 281 281 281 281 281 281 281 280 279 277 277 276 276 276
261 262 262 263 264 265 265 266 267 267 268 269 269 270 271 272 273 273 274 275 276 277 278 279 280 281 282 283 284 284 284 285 285 285 285 286 286 286 286 287 287 287 287 288 288 288 288 288 288 288 287 287 286 286 286 285 285 284 284 284 283 283 283 282 282 282 281 281 281 281 280 280 280 280 280 281 280 280 280 279 278 276 276 275 275 275
263 263 264 264 265 266 266 267 268 268 269 270 270 271 272 272 273 274 275 275 276 277 279 280 281 282 283 284 284 285 285 285 285 285 286 286 286 286 286 287 287 287 288 288 288 288 288 288 288 288 287 287 287 286 286 285 285 284 284 284 283 283 283 282 282 281 281 281 281 280 280 280 280 280 280 280 280 279 279 278 277 276 275 274 274 274
263 264 265 265 266 267 267 268 268 269 269 270 271 271 272 273 274 275 275 276 277 279 280 281 282 283 284 285 285 285 285 286 286 286 286 286 286 286 286 287 287 287 288 288 289 289 288 288 288 288 287 287 287 286 286 285 285 284 284 284 283 283 282 282 282 281 281 281 281 280 280 280 280 280 280 279 279 278 278 277 276 275 274 274 274 274
264 265 265 266 266 267 267 268 268 269 270 270 271 272 273 274 275 276 277 278 279 280 281 283 284 284 285 285 285 285 286 286 286 286 286 287 287 287 287 287 288 288 288 289 289 288 288 288 288 288 287 287 286 286 286 285 285 284 284 284 283 283 282 282 282 281 281 281 281 280 280 280 280 280 280 279 279 278 277 276 275 274 273 273 273 273
265 265 266 266 267 267 267 268 269 269 270 271 271 272 273 274 276 277 278 280 281 282 283 284 284 285 284 285 285 285 286 286 286 287 287 287 287 287 287 288 288 288 288 289 289 288 288 288 288 287 287 287 286 286 286 285 285 285 284 284 283 283 283 282 282 282 281 281 281 281 281 280 280 280 280 279 278 277 276 275 274 273 273 272 272 273
265 265 266 266 267 267 268 268 269 270 270 271 272 273 274 276 277 279 280 281 282 283 283 284 285 285 284 285 285 285 286 286 286 287 287 287 287 287 287 288 288 288 288 288 288 288 287 287 287 287 287 286 286 286 285 285 285 285 284 284 284 283 283 283 282 282 282 281 281 281 281 281 280 280 279 279 278 277 276 275 274 273 272 272 272 272
265 265 266 266 267 267 268 268 269 270 271 272 273 275 276 277 279 280 281 282 282 283 283 284 285 285 285 285 285 285 286 286 286 287 287 287 287 287 288 288 288 288 288 288 288 287 287 287 287 287 286 286 286 285 285 285 285 285 284 284 284 284 283 283 283 282 282 282 281 281 281 280 280 280 279 278 278 277 276 274 273 272 272 272 272 272
265 265 266 266 267 268 268 269 270 271 272 273 275 276 277 279 280 281 281 282 282 283 284 284 285 285 285 285 285 286 286 286 287 287 287 287 287 287 288 288 288 288 288 287 287 287 286 286 286 286 286 286 286 285 285 285 285 284 284 284 284 284 283 283 283 283 282 282 282 281 281 280 280 279 278 278 277 276 275 274 273 272 272 272 272 272
265 266 266 267 267 268 269 270 271 272 273 275 276 277 278 279 281 281 282 282 283 283 284 284 285 285 285 286 286 286 286 286 287 287 287 287 287 288 288 288 288 288 288 287 287 286 286 286 286 286 286 285 285 285 285 284 284 284 284 284 284 283 283 283 283 283 282 282 282 281 281 280 279 279 278 277 276 275 274 274 273 272 272 272 272 272
266 266 267 267 268 269 270 271 272 274 275 276 277 278 279 280 281 282 282 283 283 284 284 285 285 285 285 286 286 286 286 286 286 287 287 287 287 288 288 288 288 287 287 287 286 286 285 285 285 285 285 284 284 284 284 283 283 283 283 283 283 283 283 283 282 282 282 282 281 281 280 280 279 278 278 277 276 275 274 273 273 273 273 273 273 273
265 266 266 267 268 270 271 272 274 275 276 277 278 279 280 281 282 282 283 284 284 285 285 285 285 285 286 286 286 287 287 287 286 287 287 287 287 287 288 287 287 287 287 286 286 285 285 284 284 284 284 283 283 283 282 282 282 282 282 282 282 282 282 282 282 282 281 281 281 280 280 279 279 278 277 276 275 275 274 273 273 273 273 273 273 274
264 265 266 268 269 270 272 273 275 276 277 278 279 280 281 282 283 283 284 285 285 285 285 285 286 286 286 286 287 287 287 287 287 287 287 287 287 287 287 287 286 286 286 286 285 285 284 284 284 283 283 282 282 282 281 281 281 281 281 281 281 281 281 281 281 281 281 280 280 280 279 278 278 277 276 276 275 274 274 274 273 273 274 274 274 275
265 266 267 269 270 272 273 275 276 277 279 280 281 282 283 283 284 284 285 285 285 286 286 286 286 286 286 287 287 287 287 287 287 287 287 287 287 286 286 286 286 286 285 285 284 284 284 283 283 283 282 282 281 281 281 280 280 280 280 280 280 280 280 280 280 280 280 279 279 279 278 278 277 277 276 275 275 274 274 274 274 274 274 275 275 275
267 268 269 271 272 274 275 277 278 279 280 281 282 283 284 284 285 285 285 286 286 286 286 286 286 287 287 287 287 287 287 287 287 287 287 286 286 286 286 285 285 285 284 284 283 283 282 282 282 282 282 281 281 281 280 280 280 280 279 279 279 279 279 279 279 279 279 279 278 278 278 277 277 276 276 275 275 275 274 274 274 275 275 275 276 276
269 271 272 273 275 276 277 278 279 280 281 282 283 284 284 285 285 285 285 285 285 286 286 286 286 287 287 287 287 287 287 287 286 286 286 286 285 285 285 285 285 284 284 283 283 282 282 282 281 281 281 281 280 280 280 280 279 279 279 279 279 279 279 279 279 279 278 278 278 278 277 277 276 276 275 275 275 275 275 275 275 276 276 276 276 277
272 273 275 276 277 278 279 280 281 281 282 283 283 284 284 284 284 284 284 285 285 285 285 286 286 286 286 286 286 286 286 286 285 285 285 285 285 284 284 284 284 284 283 283 283 282 282 281 281 281 281 280 280 280 280 280 279 279 279 279 279 279 278 278 278 278 278 277 277 277 276 276 276 275 275 275 275 275 276 276 276 277 277 277 277 277
275 276 277 278 279 280 281 282 282 283 283 283 284 284 284 284 284 284 284 284 284 285 285 285 285 285 285 285 285 285 285 285 285 285 284 284 284 284 284 284 284 284 284 283 283 282 282 281 281 281 280 280 281 280 280 280 280 279 279 279 278 278 278 278 278 277 277 277 276 276 276 276 275 275 275 276 276 276 277 277 277 277 277 277 277 277
278 279 280 281 281 282 283 283 284 284 284 284 284 284 284 284 284 284 284 284 285 285 285 285 285 285 285 285 285 285 285 285 285 285 285 284 284 284 284 284 284 284 284 284 283 283 282 282 281 281 280 280 280 280 280 280 280 280 279 279 278 278 278 277 277 277 277 276 276 276 276 276 276 276 276 276 277 277 278 278 278 278 278 278 277 276
281 281 282 283 283 284 284 285 285 285 285 285 285 284 284 284 284 285 285 285 285 285 285 285 285 285 285 285 285 285 285 285 285 285 285 285 285 285 285 284 284 284 284 284 283 283 282 282 281 281 281 281 280 280 280 280 280 280 280 279 279 278 278 277 277 277 277 277 277 277 277 277 277 277 277 278 278 279 279 279 279 279 278 278 277 276
283 284 284 284 285 285 285 285 285 285 285 285 284 284 285 285 285 285 285 285 285 285 285 285 285 285 285 285 285 285 285 285 285 285 285 285 285 285 285 285 284 284 284 284 283 283 282 282 282 281 281 281 280 280 280 280 280 280 280 280 279 279 278 277 277 277 277 277 277 278 278 278 278 279 279 279 279 280 280 280 279 279 278 277 276 275
285 285 285 285 285 285 285 285 285 284 284 284 284 284 285 285 285 285 285 285 285 285 285 285 285 285 285 285 285 285 285 285 285 285 285 285 285 285 285 285 284 284 284 283 283 283 282 282 281 281 281 281 281 280 280 280 280 280 280 280 280 280 279 278 278 278 278 278 278 279 279 280 280 280 280 280 280 280 280 280 279 279 278 277 276 274
285 285 285 284 284 284 284 284 284 283 283 284 284 284 285 285 285 285 285 285 285 285 285 285 285 285 285 285 285 285 285 285 285 285 285 285 285 285 285 284 284 284 284 283 283 282 282 281 281 281 280 280 280 281 281 281 281 281 281 281 281 280 280 279 279 279 279 279 280 280 280 281 281 281 281 281 281 281 280 280 279 279 278 276 275 274
284 284 284 284 284 284 283 283 283 283 283 283 284 284 285 285 285 285 285 285 285 285 285 285 285 285 285 285 285 285 285 285 285 285 285 285 285 285 285 285 284 284 284 283 283 282 282 281 281 280 280 280 280 280 281 281 281 282 282 281 281 281 281 280 280 280 280 280 281 281 281 281 281 281 281 281 281 281 280 280 279 278 277 276 275 274
284 284 284 283 283 282 282 282 282 282 283 283 284 284 285 285 285 285 285 285 285 285 285 285 286 286 285 286 286 286 285 285 285 285 285 285 285 285 285 285 284 284 284 283 283 282 282 281 281 280 280 279 279 280 280 281 281 282 282 282 282 281 281 281 281 281 281 281 281 281 281 282 282 281 281 281 281 280 280 279 278 277 276 275 274 274
284 284 283 283 282 282 281 282 282 282 283 284 284 284 285 285 285 285 285 285 286 286 286 286 286 286 286 286 286 286 286 285 285 285 285 285 285 285 285 285 284 284 284 283 282 282 281 281 281 280 280 279 279 279 280 280 281 282 282 282 282 282 282 282 282 281 281 281 281 281 281 281 281 281 281 281 280 279 279 278 277 276 276 275 275 274
284 283 283 282 282 282 282 282 283 283 284 284 285 285 285 285 286 286 286 286 286 286 286 286 286 287 287 287 287 287 286 286 286 286 285 285 285 285 284 284 284 284 283 283 282 282 281 281 281 281 280 280 280 279 280 280 281 281 282 282 282 282 282 282 282 282 282 281 281 281 281 281 281 281 281 280 280 279 278 277 277 276 276 276 276 276
284 283 283 283 282 283 283 283 284 284 285 285 285 286 286 286 286 286 287 287 287 287 287 287 287 288 288 288 288 287 287 287 287 286 286 286 285 285 284 284 283 283 283 282 282 282 282 282 281 281 281 281 281 280 280 281 281 281 282 282 282 282 282 282 282 282 281 281 281 281 281 281 281 280 280 280 279 278 278 277 277 276 276 277 277 277
284 284 284 284 284 284 284 284 285 285 285 286 286 286 287 287 287 287 287 288 288 288 288 288 289 289 288 288 288 288 288 288 288 287 287 286 286 285 284 284 283 283 282 282 282 282 282 282 282 282 282 282 282 282 282 282 281 281 281 282 282 281 281 281 281 281 281 281 281 281 281 281 280 280 280 279 279 278 278 278 277 277 277 278 278 279
284 284 284 284 284 285 285 285 286 286 286 287 287 287 287 287 287 288 288 288 289 289 289 289 289 289 289 289 289 289 288 288 288 288 287 287 286 286 285 284 283 283 282 282 282 282 283 283 284 283 283 283 283 283 283 282 282 281 281 281 281 280 280 280 280 281 281 281 281 280 280 280 280 280 279 279 279 279 279 279 279 279 279 279 279 280
284 284 284 284 285 285 286 286 287 287 287 288 288 288 288 289 289 289 289 289 290 290 290 290 290 290 290 290 289 289 289 289 288 288 288 287 287 286 285 284 283 283 282 282 283 283 284 285 285 285 284 284 284 284 283 282 282 281 280 280 279 279 279 280 280 280 280 280 280 280 280 280 280 279 279 280 280 280 280 280 281 281 280 281 281 281
Height
5706 5705 5704 5703 5702 5701 5701 5701 5701 5701 5700 5700 5700 5699 5699 5699 5698 5698 5697 5697 5696 5696 5695 5695 5695 5694 5694 5693 5693 5692 5692 5691 5691 5690 5690 5690 5690 5689 5689 5688 5687 5687 5686 5686 5686 5685 5685 5685 5685 5685 5685 5684 5684 5683 5683 5682 5682 5681 5681 5680 5680 5679 5679 5678 5678 5677 5677 5676 5675 5675 5674 5674 5673 5673 5672 5672 5671 5670 5669 5669 5668 5667 5666 5665 5664 5663
5703 5701 5700 5700 5699 5698 5698 5698 5698 5698 5697 5697 5697 5697 5696 5696 5695 5695 5695 5695 5694 5694 5693 5693 5692 5692 5691 5691 5690 5690 5690 5689 5689 5688 5688 5688 5687 5687 5687 5686 5686 5685 5685 5685 5684 5684 5684 5683 5683 5683 5682 5682 5682 5681 5681 5680 5680 5679 5679 5678 5678 5677 5677 5676 5676 5675 5675 5674 5674 5673 5672 5672 5671 5671 5670 5670 5670 5669 5668 5667 5666 5665 5665 5664 5663 5662
5699 5698 5697 5696 5696 5695 5695 5695 5695 5695 5695 5694 5694 5694 5694 5693 5693 5692 5692 5692 5692 5691 5691 5691 5690 5690 5689 5689 5688 5688 5687 5687 5686 5686 5686 5685 5685 5685 5685 5684 5684 5683 5683 5683 5682 5682 5681 5681 5681 5681 5680 5680 5680 5679 5679 5678 5678 5677 5677 5676 5676 5675 5675 5675 5674 5674 5673 5673 5672 5671 5671 5670 5670 5669 5669 5668 5668 5667 5666 5666 5665 5665 5664 5663 5662 5661
5695 5695 5694 5693 5693 5693 5693 5693 5692 5692 5692 5691 5691 5691 5691 5690 5690 5690 5690 5690 5689 5689 5689 5689 5688 5688 5687 5687 5686 5686 5685 5685 5685 5684 5684 5683 5683 5683 5682 5682 5681 5681 5681 5680 5680 5680 5680 5679 5679 5679 5678 5678 5678 5677 5677 5676 5676 5675 5675 5675 5674 5674 5673 5673 5672 5672 5671 5671 5670 5670 5669 5668 5668 5667 5667 5666 5666 5665 5665 5665 5664 5663 5663 5662 5661 5660
5692 5691 5690 5690 5690 5690 5690 5690 5690 5689 5689 5689 5688 5688 5688 5688 5688 5687 5687 5687 5687 5687 5686 5686 5686 5685 5685 5685 5684 5684 5683 5683 5682 5682 5682 5681 5681 5680 5680 5680 5679 5679 5679 5678 5678 5678 5677 5677 5677 5677 5676 5676 5675 5675 5675 5674 5674 5673 5673 5672 5672 5671 5671 5671 5670 5670 5669 5669 5668 5668 5667 5667 5666 5665 5665 5665 5664 5664 5663 5663 5662 5662 5661 5660 5660 5659
5688 5687 5687 5687 5687 5687 5687 5687 5687 5686 5686 5686 5685 5685 5685 5685 5685 5685 5685 5685 5685 5685 5684 5684 5684 5683 5683 5683 5682 5682 5681 5681 5680 5680 5680 5679 5679 5678 5678 5677 5677 5677 5676 5676 5676 5675 5675 5675 5675 5674 5674 5674 5673 5673 5672 5672 5672 5671 5671 5670 5670 5670 5669 5669 5668 5668 5667 5667 5666 5666 5665 5665 5664 5664 5663 5663 5662 5662 5661 5661 5660 5660 5660 5659 5659 5658
5685 5684 5684 5684 5684 5684 5684 5684 5684 5684 5683 5683 5683 5683 5683 5683 5683 5683 5683 5682 5682 5682 5682 5682 5681 5681 5681 5680 5680 5680 5679 5679 5678 5678 5677 5677 5676 5676 5675 5675 5675 5675 5674 5674 5673 5673 5673 5673 5672 5672 5672 5671 5671 5671 5670 5670 5670 5669 5669 5668 5668 5667 5667 5667 5666 5666 5665 5665 5665 5664 5663 5663 5662 5662 5661 5661 5660 5660 5660 5659 5659 5658 5658 5658 5657 5657
5681 5681 5681 5681 5681 5681 5681 5681 5681 5680 5680 5680 5680 5680 5680 5680 5680 5680 5680 5680 5680 5680 5680 5679 5679 5679 5678 5678 5678 5677 5677 5676 5676 5675 5675 5675 5674 5674 5673 5673 5673 5672 5672 5671 5671 5671 5670 5670 5670 5670 5670 5669 5669 5668 5668 5668 5667 5667 5666 5666 5666 5665 5665 5665 5664 5664 5663 5663 5662 5662 5661 5661 5660 5660 5659 5659 5658 5658 5657 5657 5657 5656 5656 5656 5655 5655
5678 5678 5678 5678 5679 5679 5678 5678 5678 5678 5677 5677 5677 5678 5678 5678 5678 5678 5678 5678 5678 5677 5677 5677 5676 5676 5676 5675 5675 5675 5674 5674 5673 5673 5673 5672 5672 5671 5671 5671 5670 5670 5670 5669 5669 5669 5668 5668 5668 5667 5667 5667 5666 5666 5666 5665 5665 5665 5664 5664 5664 5663 5663 5662 5662 5662 5661 5661 5660 5660 5660 5659 5658 5658 5657 5657 5656 5656 5655 5655 5655 5655 5654 5654 5654 5653
5675 5675 5675 5675 5676 5676 5675 5675 5675 5675 5675 5675 5675 5675 5676 5676 5676 5676 5676 5676 5675 5675 5675 5675 5674 5674 5674 5673 5673 5672 5672 5671 5671 5670 5670 5670 5670 5669 5669 5668 5668 5668 5667 5667 5666 5666 5666 5666 5665 5665 5665 5665 5664 5664 5664 5663 5663 5662 5662 5662 5661 5661 5661 5660 5660 5660 5659 5659 5658 5658 5657 5657 5656 5656 5655 5655 5654 5654 5653 5653 5653 5652 5652 5652 5652 5651
5673 5673 5673 5673 5673 5673 5673 5672 5672 5672 5672 5672 5672 5673 5673 5673 5674 5674 5674 5674 5673 5673 5672 5672 5672 5671 5671 5671 5670 5670 5669 5669 5668 5668 5668 5667 5667 5667 5666 5666 5666 5665 5665 5665 5664 5664 5664 5663 5663 5663 5662 5662 5662 5661 5661 5661 5660 5660 5660 5660 5659 5659 5659 5658 5658 5657 5657 5656 5656 5656 5655 5655 5654 5654 5653 5653 5652 5652 5651 5651 5651 5650 5650 5650 5650 5650
5670 5670 5670 5670 5670 5670 5670 5670 5669 5669 5670 5670 5670 5670 5671 5671 5671 5671 5671 5671 5671 5671 5670 5670 5669 5669 5669 5668 5668 5667 5667 5666 5666 5666 5665 5665 5665 5665 5664 5664 5664 5663 5663 5662 5662 5662 5661 5661 5661 5660 5660 5660 5660 5659 5659 5659 5658 5658 5658 5657 5657 5656 5656 5656 5655 5655 5655 5654 5654 5653 5653 5653 5652 5652 5651 5651 5650 5650 5650 5649 5649 5648 5648 5648 5648 5647
5667 5667 5666 5666 5666 5666 5666 5666 5667 5667 5667 5668 5668 5668 5668 5668 5668 5668 5669 5669 5669 5668 5668 5668 5667 5666 5666 5666 5665 5665 5665 5664 5664 5664 5663 5663 5663 5662 5662 5661 5661 5661 5660 5660 5660 5659 5659 5659 5658 5658 5658 5657 5657 5657 5656 5656 5656 5655 5655 5655 5655 5654 5654 5653 5653 5653 5652 5652 5651 5651 5651 5650 5650 5650 5649 5649 5648 5648 5647 5647 5647 5646 5646 5646 5645 5645
5663 5663 5663 5663 5663 5663 5664 5664 5664 5664 5665 5665 5666 5666 5666 5666 5666 5666 5666 5666 5666 5666 5665 5665 5665 5664 5664 5663 5663 5663 5662 5662 5662 5661 5661 5660 5660 5660 5660 5659 5659 5659 5658 5658 5657 5657 5657 5656 5656 5655 5655 5655 5655 5655 5654 5654 5653 5653 5653 5652 5652 5652 5651 5651 5650 5650 5650 5650 5649 5649 5648 5648 5648 5647 5647 5646 5646 5646 5645 5645 5645 5644 5644 5644 5644 5643
5660 5660 5660 5660 5660 5660 5661 5661 5661 5662 5662 5663 5663 5663 5663 5663 5663 5663 5663 5663 5663 5663 5663 5663 5662 5662 5661 5661 5660 5660 5660 5660 5659 5659 5659 5658 5658 5658 5657 5657 5657 5656 5656 5655 5655 5655 5655 5654 5654 5653 5653 5653 5652 5652 5652 5651 5651 5650 5650 5650 5650 5649 5649 5648 5648 5648 5647 5647 5646 5646 5646 5645 5645 5645 5645 5644 5644 5643 5643 5643 5642 5642 5642 5641 5641 5641
5657 5657 5657 5657 5658 5658 5659 5659 5659 5660 5660 5660 5660 5660 5661 5661 5661 5661 5660 5660 5660 5660 5660 5660 5660 5659 5659 5659 5658 5658 5657 5657 5657 5657 5656 5656 5655 5655 5655 5655 5654 5654 5654 5653 5652 5652 5652 5651 5651 5651 5650 5650 5650 5650 5649 5649 5648 5648 5647 5647 5647 5646 5646 5646 5645 5645 5645 5644 5644 5644 5643 5643 5643 5642 5642 5641 5641 5641 5640 5640 5640 5640 5640 5639 5639 5639
5655 5655 5655 5655 5655 5655 5656 5657 5657 5657 5658 5658 5658 5658 5658 5658 5658 5658 5658 5658 5658 5657 5657 5657 5657 5656 5656 5656 5656 5655 5655 5655 5654 5654 5654 5654 5653 5653 5652 5652 5651 5651 5651 5650 5650 5650 5649 5649 5648 5648 5648 5647 5647 5647 5646 5646 5645 5645 5645 5645 5644 5644 5643 5643 5643 5642 5642 5641 5641 5641 5640 5640 5640 5640 5639 5639 5639 5638 5638 5638 5637 5637 5637 5637 5637 5636
5652 5652 5652 5652 5653 5653 5654 5655 5655 5655 5655 5655 5655 5655 5655 5655 5655 5655 5655 5655 5655 5655 5654 5654 5654 5654 5654 5653 5653 5653 5652 5652 5651 5652 5652 5651 5650 5650 5650 5649 5649 5649 5648 5648 5647 5647 5646 5646 5646 5645 5645 5645 5645 5644 5644 5643 5643 5642 5642 5642 5641 5641 5640 5640 5640 5639 5639 5639 5638 5638 5638 5637 5637 5637 5636 5636 5636 5635 5635 5635 5635 5635 5634 5634 5634 5634
5650 5650 5650 5650 5650 5651 5652 5652 5652 5653 5653 5653 5653 5653 5653 5653 5653 5653 5653 5653 5652 5652 5652 5651 5651 5651 5651 5651 5650 5650 5650 5649 5649 5649 5649 5649 5648 5648 5647 5647 5646 5646 5645 5645 5645 5644 5644 5643 5643 5643 5642 5642 5642 5641 5641 5640 5640 5640 5639 5639 5638 5638 5638 5637 5637 5636 5636 5636 5635 5635 5635 5635 5634 5634 5634 5633 5633 5633 5633 5632 5632 5632 5632 5631 5631 5631
5647 5647 5648 5648 5648 5649 5649 5650 5650 5650 5650 5650 5650 5651 5651 5651 5651 5651 5650 5650 5650 5650 5650 5649 5649 5649 5649 5648 5648 5647 5647 5647 5646 5646 5647 5646 5646 5645 5645 5644 5644 5643 5643 5642 5642 5641 5641 5640 5640 5640 5640 5639 5639 5639 5638 5638 5637 5637 5636 5636 5635 5635 5635 5634 5634 5633 5633 5633 5632 5632 5632 5631 5631 5631 5630 5630 5630 5630 5630 5630 5629 5629 5629 5629 5629 5629
5645 5645 5645 5646 5646 5646 5647 5647 5647 5647 5647 5648 5648 5648 5648 5648 5648 5648 5648 5648 5648 5648 5647 5647 5647 5647 5646 5646 5645 5645 5645 5644 5644 5644 5644 5644 5643 5643 5642 5641 5641 5640 5640 5640 5639 5639 5638 5638 5637 5637 5637 5636 5636 5635 5635 5635 5634 5634 5633 5633 5632 5632 5631 5631 5630 5630 5630 5630 5629 5629 5629 5628 5628 5628 5628 5627 5627 5627 5627 5626 5626 5626 5626 5626 5626 5626
5642 5643 5643 5643 5644 5644 5645 5645 5645 5645 5645 5645 5645 5645 5646 5646 5645 5645 5645 5645 5645 5645 5645 5645 5644 5644 5644 5643 5643 5642 5642 5641 5641 5641 5641 5641 5640 5640 5639 5639 5638 5638 5637 5637 5636 5636 5635 5635 5635 5634 5634 5633 5633 5632 5632 5631 5631 5630 5630 5630 5629 5629 5628 5628 5627 5627 5626 5626 5626 5625 5625 5625 5625 5625 5625 5624 5624 5624 5624 5624 5623 5623 5623 5623 5623 5623
5640 5640 5641 5641 5641 5642 5642 5642 5642 5642 5642 5642 5643 5643 5643 5643 5643 5643 5643 5643 5643 5642 5642 5642 5641 5641 5641 5640 5640 5640 5639 5639 5639 5638 5638 5638 5637 5637 5637 5636 5635 5635 5635 5634 5633 5633 5632 5632 5631 5631 5631 5630 5630 5629 5629 5628 5628 5627 5627 5626 5626 5625 5625 5625 5624 5624 5623 5623 5623 5622 5622 5622 5622 5621 5621 5621 5621 5621 5620 5620 5620 5620 5620 5620 5620 5620
5638 5638 5639 5639 5639 5639 5640 5640 5640 5640 5640 5640 5640 5640 5640 5640 5640 5640 5640 5640 5640 5640 5639 5639 5639 5639 5638 5638 5637 5637 5636 5636 5636 5635 5635 5635 5635 5634 5634 5633 5632 5632 5632 5631 5630 5630 5629 5629 5629 5628 5628 5627 5627 5626 5626 5625 5625 5624 5624 5623 5623 5622 5622 5621 5621 5620 5620 5620 5619 5619 5619 5618 5618 5618 5618 5618 5618 5617 5617 5617 5617 5617 5617 5617 5617 5617
5636 5636 5636 5637 5637 5637 5637 5637 5637 5637 5637 5638 5638 5638 5638 5638 5637 5637 5637 5637 5637 5637 5636 5636 5636 5636 5635 5635 5635 5634 5634 5633 5633 5632 5632 5632 5631 5631 5631 5630 5630 5629 5629 5628 5628 5627 5626 5625 5625 5625 5625 5624 5624 5623 5623 5622 5622 5621 5620 5620 5620 5619 5619 5618 5618 5617 5617 5616 5616 5615 5615 5615 5615 5615 5614 5614 5614 5614 5614 5614 5614 5614 5614 5614 5614 5614
5634 5634 5634 5634 5635 5635 5635 5635 5635 5635 5635 5635 5635 5635 5635 5635 5635 5635 5635 5634 5634 5634 5634 5633 5633 5633 5633 5633 5632 5632 5631 5630 5630 5629 5629 5629 5628 5628 5628 5627 5626 5626 5625 5625 5625 5624 5623 5622 5622 5622 5621 5621 5620 5620 5619 5619 5618 5618 5617 5617 5616 5616 5615 5615 5615 5614 5614 5613 5613 5612 5612 5611 5611 5611 5611 5610 5610 5610 5610 5610 5610 5610 5610 5610 5610 5610
5631 5632 5632 5632 5632 5632 5632 5633 5633 5633 5633 5633 5633 5633 5633 5632 5632 5632 5632 5632 5632 5631 5631 5630 5630 5630 5630 5630 5629 5629 5628 5627 5627 5626 5626 5625 5625 5625 5625 5624 5624 5623 5622 5622 5621 5620 5620 5619 5619 5619 5618 5618 5617 5617 5616 5615 5615 5615 5614 5614 5613 5613 5612 5612 5611 5611 5610 5610 5609 5609 5609 5608 5608 5607 5607 5607 5607 5607 5607 5607 5607 5607 5607 5607 5607 5607
5629 5630 5630 5630 5630 5630 5630 5630 5630 5630 5630 5630 5630 5630 5630 5630 5630 5629 5629 5629 5629 5628 5628 5627 5627 5627 5627 5627 5626 5626 5625 5625 5624 5624 5623 5622 5622 5622 5622 5621 5620 5620 5620 5619 5618 5617 5617 5616 5616 5615 5615 5614 5614 5613 5613 5612 5612 5611 5610 5610 5610 5609 5609 5608 5608 5607 5607 5606 5606 5605 5605 5605 5604 5604 5604 5604 5603 5603 5603 5603 5603 5603 5603 5603 5603 5603
5627 5627 5627 5627 5627 5627 5628 5628 5628 5628 5628 5628 5627 5627 5627 5627 5627 5627 5626 5626 5626 5625 5625 5625 5625 5624 5624 5624 5624 5623 5623 5622 5621 5620 5620 5619 5619 5619 5619 5618 5617 5617 5616 5615 5615 5614 5614 5613 5612 5612 5611 5611 5610 5610 5609 5609 5608 5608 5607 5607 5606 5606 5605 5605 5604 5604 5603 5603 5602 5602 5602 5601 5601 5601 5600 5600 5600 5600 5600 5600 5600 5600 5600 5600 5600 5600
5625 5625 5625 5625 5625 5625 5625 5625 5625 5625 5625 5625 5625 5625 5625 5624 5624 5624 5623 5623 5623 5623 5622 5622 5622 5621 5621 5621 5620 5620 5620 5619 5618 5617 5616 5616 5615 5615 5615 5615 5614 5613 5613 5612 5611 5611 5610 5610 5610 5609 5608 5607 5607 5606 5606 5605 5605 5604 5604 5603 5603 5602 5602 5601 5601 5600 5600 5599 5599 5599 5598 5598 5598 5597 5597 5597 5597 5596 5596 5596 5596 5596 5596 5596 5596 5596
5622 5622 5622 5622 5622 5622 5622 5622 5622 5622 5622 5622 5622 5622 5622 5621 5621 5621 5620 5620 5620 5620 5620 5619 5619 5619 5618 5618 5617 5617 5616 5616 5615 5614 5614 5613 5612 5612 5612 5611 5610 5610 5610 5609 5608 5607 5607 5606 5606 5606 5605 5604 5604 5603 5603 5602 5601 5601 5600 5600 5599 5599 5598 5598 5597 5597 5596 5596 5595 5595 5595 5595 5594 5594 5594 5594 5593 5593 5593 5593 5593 5592 5592 5592 5592 5592
5620 5620 5620 5620 5620 5620 5620 5620 5620 5620 5620 5619 5619 5619 5619 5619 5618 5618 5618 5617 5617 5617 5617 5616 5616 5615 5615 5615 5614 5614 5613 5613 5612 5611 5610 5610 5609 5609 5609 5608 5607 5606 5606 5605 5604 5603 5603 5602 5603 5602 5602 5601 5600 5600 5599 5599 5598 5597 5597 5596 5596 5595 5595 5595 5594 5593 5593 5592 5592 5591 5591 5591 5590 5590 5590 5590 5590 5590 5590 5589 5589 5589 5589 5588 5588 5588
5617 5617 5617 5617 5617 5617 5617 5617 5617 5617 5617 5617 5616 5616 5616 5616 5615 5615 5615 5615 5614 5614 5614 5613 5613 5612 5612 5611 5611 5611 5610 5610 5609 5608 5607 5606 5606 5605 5605 5605 5604 5603 5602 5602 5601 5600 5600 5599 5599 5599 5598 5598 5597 5596 5596 5595 5595 5594 5593 5593 5592 5592 5592 5591 5590 5590 5589 5589 5589 5588 5588 5587 5587 5587 5586 5586 5586 5586 5586 5586 5585 5585 5585 5585 5585 5584
5615 5615 5615 5615 5615 5615 5615 5615 5615 5614 5614 5614 5614 5613 5613 5613 5612 5612 5612 5611 5611 5611 5610 5610 5610 5609 5609 5608 5608 5608 5607 5606 5605 5605 5604 5603 5602 5602 5601 5601 5600 5600 5599 5598 5598 5597 5596 5595 5595 5595 5594 5594 5594 5593 5592 5592 5591 5590 5590 5590 5589 5589 5588 5588 5587 5586 5586 5585 5585 5585 5584 5584 5584 5583 5583 5583 5583 5582 5582 5582 5582 5582 5581 5581 5581 5580
5613 5613 5613 5613 5612 5612 5612 5612 5612 5612 5611 5611 5611 5610 5610 5610 5610 5609 5609 5608 5608 5608 5607 5607 5606 5606 5605 5605 5605 5604 5604 5603 5602 5601 5600 5600 5599 5598 5598 5597 5597 5596 5595 5595 5594 5593 5592 5592 5591 5591 5590 5590 5590 5590 5589 5588 5587 5587 5586 5586 5585 5585 5585 5584 5583 5583 5582 5582 5581 5581 5580 5580 5580 5580 5579 5579 5579 5579 5579 5579 5578 5578 5578 5577 5577 5576
5610 5610 5610 5610 5610 5610 5610 5610 5609 5609 5609 5608 5608 5608 5607 5607 5607 5606 5606 5605 5605 5605 5604 5604 5603 5602 5602 5601 5601 5601 5600 5600 5599 5598 5597 5596 5595 5595 5594 5594 5593 5593 5592 5591 5590 5590 5589 5588 5587 5587 5586 5586 5585 5585 5585 5585 5584 5583 5583 5582 5582 5581 5581 5580 5580 5579 5579 5578 5578 5577 5577 5577 5576 5576 5576 5575 5575 5575 5575 5575 5575 5574 5574 5574 5573 5573
5608 5608 5608 5608 5607 5607 5607 5607 5607 5606 5606 5606 5605 5605 5605 5605 5604 5604 5603 5603 5602 5602 5601 5600 5600 5600 5599 5598 5598 5597 5596 5596 5595 5595 5594 5593 5592 5591 5590 5590 5590 5589 5588 5588 5587 5586 5585 5584 5584 5583 5583 5582 5581 5581 5581 5581 5580 5580 5579 5579 5578 5578 5577 5576 5576 5575 5575 5575 5574 5574 5574 5573 5573 5572 5572 5572 5572 5571 5571 5571 5570 5570 5570 5570 5569 5569
5605 5605 5605 5605 5605 5605 5604 5604 5604 5604 5603 5603 5603 5602 5602 5602 5601 5601 5600 5600 5599 5599 5598 5597 5597 5596 5595 5595 5594 5594 5593 5592 5591 5591 5590 5589 5588 5587 5587 5586 5585 5585 5585 5584 5583 5582 5582 5580 5580 5579 5578 5578 5578 5577 5577 5576 5576 5576 5575 5575 5575 5574 5573 5573 5572 5571 5571 5570 5570 5570 5570 5570 5569 5569 5568 5568 5568 5567 5567 5567 5566 5566 5566 5565 5565 5565
5603 5603 5602 5602 5602 5602 5601 5601 5601 5600 5600 5600 5599 5599 5599 5598 5598 5598 5597 5597 5596 5595 5595 5594 5594 5593 5592 5591 5591 5590 5590 5589 5588 5587 5586 5585 5585 5584 5583 5582 5582 5581 5580 5580 5579 5579 5578 5577 5576 5575 5575 5574 5573 5573 5573 5572 5572 5571 5571 5571 5571 5570 5570 5569 5568 5567 5567 5567 5566 5566 5566 5565 5565 5565 5564 5564 5564 5563 5563 5562 5562 5562 5561 5561 5560 5560
5600 5600 5600 5600 5599 5599 5598 5598 5598 5597 5597 5596 5596 5596 5595 5595 5595 5594 5594 5593 5593 5592 5591 5591 5590 5589 5589 5588 5587 5587 5586 5585 5584 5584 5583 5582 5581 5580 5579 5578 5578 5577 5576 5576 5575 5575 5574 5573 5572 5571 5571 5570 5569 5569 5568 5568 5568 5567 5567 5567 5567 5567 5566 5565 5564 5563 5563 5563 5562 5562 5561 5561 5561 5560 5560 5560 5559 5559 5559 5558 5558 5557 5557 5556 5556 5555
5597 5597 5597 5597 5596 5596 5595 5595 5595 5594 5594 5594 5593 5593 5592 5592 5591 5590 5590 5590 5589 5588 5588 5587 5586 5585 5585 5584 5584 5583 5582 5581 5580 5580 5579 5578 5577 5576 5575 5575 5574 5573 5572 5571 5571 5570 5570 5569 5568 5567 5567 5566 5565 5565 5564 5564 5563 5563 5563 5563 5562 5562 5562 5561 5560 5560 5559 5558 5558 5558 5557 5557 5557 5556 5556 5555 5555 5555 5554 5554 5553 5553 5552 5552 5551 5551
5595 5595 5594 5594 5593 5593 5592 5592 5592 5591 5591 5590 5590 5590 5589 5589 5588 5587 5586 5586 5585 5585 5584 5583 5582 5582 5581 5580 5580 5580 5579 5578 5577 5576 5575 5574 5573 5572 5571 5570 5570 5569 5568 5567 5566 5566 5565 5565 5564 5563 5563 5562 5561 5560 5560 5559 5559 5559 5559 5558 5558 5558 5557 5557 5556 5556 5555 5554 5554 5554 5553 5553 5552 5552 5551 5551 5550 5550 5550 5549 5548 5548 5548 5547 5547 5547
5592 5592 5591 5591 5590 5590 5590 5589 5589 5588 5588 5587 5587 5586 5586 5585 5584 5584 5583 5582 5582 5581 5580 5580 5579 5578 5577 5577 5576 5576 5575 5574 5573 5572 5571 5570 5569 5568 5567 5566 5565 5565 5564 5563 5562 5561 5561 5560 5560 5559 5559 5558 5557 5556 5555 5555 5555 5555 5555 5554 5554 5554 5553 5553 5552 5552 5551 5550 5550 5550 5549 5548 5548 5547 5547 5546 5546 5545 5545 5544 5544 5543 5543 5543 5542 5542
5589 5589 5588 5588 5587 5587 5586 5586 5586 5585 5585 5584 5584 5583 5582 5582 5581 5580 5579 5579 5578 5577 5576 5576 5575 5574 5573 5573 5572 5572 5571 5570 5569 5568 5567 5566 5565 5564 5563 5562 5561 5560 5560 5559 5558 5557 5556 5556 5556 5555 5555 5554 5553 5553 5552 5551 5551 5551 5550 5550 5550 5549 5549 5548 5548 5548 5547 5546 5546 5545 5545 5544 5543 5543 5542 5542 5541 5540 5540 5540 5539 5539 5538 5538 5538 5538
5586 5586 5585 5585 5585 5584 5584 5583 5583 5582 5581 5581 5580 5580 5579 5578 5577 5576 5576 5575 5574 5574 5573 5572 5571 5570 5569 5569 5568 5568 5567 5566 5565 5564 5563 5562 5561 5560 5559 5558 5557 5556 5555 5554 5554 5553 5552 5552 5551 5551 5550 5550 5549 5549 5548 5547 5547 5547 5546 5546 5545 5545 5544 5544 5544 5543 5543 5542 5541 5541 5540 5540 5539 5538 5538 5537 5537 5536 5535 5535 5535 5534 5534 5534 5533 5533
5583 5583 5582 5582 5581 5581 5580 5580 5580 5579 5578 5578 5577 5576 5575 5575 5574 5573 5572 5571 5570 5570 5569 5568 5567 5566 5565 5564 5564 5563 5562 5562 5561 5560 5559 5558 5557 5556 5555 5554 5553 5552 5551 5550 5549 5549 5548 5548 5547 5546 5546 5546 5545 5545 5544 5544 5543 5543 5542 5542 5541 5541 5540 5540 5540 5539 5538 5538 5537 5536 5535 5535 5534 5534 5533 5533 5532 5531 5531 5531 5530 5530 5530 5529 5529 5529
5580 5580 5579 5579 5578 5578 5577 5577 5576 5575 5575 5574 5574 5573 5572 5571 5570 5569 5568 5567 5566 5566 5565 5564 5563 5562 5561 5560 5559 5559 5558 5557 5556 5556 5555 5554 5553 5552 5551 5550 5549 5548 5547 5546 5545 5545 5544 5543 5543 5542 5542 5542 5541 5540 5540 5540 5539 5539 5538 5537 5537 5536 5536 5535 5535 5535 5534 5533 5532 5532 5531 5531 5530 5530 5529 5528 5528 5527 5527 5526 5526 5525 5525 5525 5525 5524
5577 5576 5576 5575 5575 5574 5574 5573 5573 5572 5571 5570 5570 5569 5568 5567 5566 5565 5564 5563 5563 5562 5561 5560 5559 5558 5557 5556 5555 5554 5553 5552 5551 5551 5550 5550 5549 5548 5547 5546 5545 5544 5543 5542 5542 5541 5540 5539 5539 5538 5538 5538 5537 5536 5535 5535 5535 5535 5534 5533 5532 5532 5532 5531 5531 5530 5530 5529 5528 5528 5527 5526 5526 5525 5525 5524 5524 5523 5522 5522 5522 5521 5521 5521 5520 5520
5574 5573 5572 5572 5571 5571 5570 5570 5569 5568 5567 5567 5566 5565 5564 5564 5563 5561 5560 5560 5559 5558 5557 5556 5555 5554 5552 5551 5551 5550 5549 5548 5547 5546 5545 5545 5545 5544 5543 5542 5541 5540 5539 5539 5538 5537 5536 5535 5535 5534 5534 5533 5533 5532 5531 5531 5531 5530 5529 5529 5528 5528 5527 5527 5526 5526 5525 5525 5524 5523 5523 5522 5522 5521 5521 5520 5519 5519 5518 5518 5517 5517 5517 5516 5516 5515
5570 5570 5569 5568 5568 5567 5566 5566 5565 5565 5564 5563 5562 5561 5560 5560 5559 5558 5557 5556 5555 5554 5553 5552 5551 5549 5548 5547 5546 5545 5544 5543 5542 5541 5541 5540 5540 5539 5538 5537 5537 5536 5535 5535 5534 5534 5533 5532 5531 5530 5530 5529 5529 5528 5527 5527 5526 5525 5525 5524 5524 5523 5523 5522 5522 5522 5521 5520 5520 5519 5519 5518 5518 5517 5517 5516 5515 5514 5514 5513 5513 5512 5512 5512 5511 5510
5567 5566 5565 5565 5564 5564 5563 5562 5561 5560 5560 5559 5558 5557 5557 5556 5555 5554 5553 5552 5551 5550 5549 5548 5547 5545 5544 5543 5542 5541 5540 5539 5538 5537 5536 5536 5535 5535 5534 5533 5533 5532 5531 5531 5530 5530 5529 5528 5527 5526 5525 5525 5525 5524 5523 5522 5522 5521 5521 5520 5520 5519 5518 5518 5518 5517 5517 5516 5516 5515 5515 5514 5514 5513 5513 5512 5511 5510 5509 5509 5508 5507 5507 5507 5506 5505